AGROMETEOROLOŠKI PORTAL

vinorodna pokrajina

Temelj dobrega kmetovanja

Pregled podatkov za lokacijo BOHINJSKA ČEŠNJICA - ARSO, meteorološka postaja 153

Pregled senzorjev na lokaciji

ID Ime Zadnja
vrednost
Datum in čas
meritve
(lokalni čas)
Tip
senzorja
5931 Padavine (mm) 0 mm 4.2.2023 23:00 ARSO
5933 Relativna zračna vlaga (2 m) (% RH) 58 % RH 4.2.2023 23:00 ARSO
5932 Temperatura (2 m) (°C) -0,2 °C 4.2.2023 23:00 ARSO

Pregled podatkov zadnjih 24 ur

Zap.
št.
Datum in čas
(lokalni čas)
BOHINJSKA ČEŠNJICA - ARSO
Padavine Relativna
zračna
vlaga
(2
m)
Temperatura
(2
m)
1 4.2.2023 23:00 0 57,7 -0,2
2 4.2.2023 22:30 0 54,7 0,2
3 4.2.2023 22:00 0 50,7 1
4 4.2.2023 21:30 0 44,7 2
5 4.2.2023 21:00 0 39,3 2,9
6 4.2.2023 20:30 0 38 3,4
7 4.2.2023 20:00 0 36,3 3,7
8 4.2.2023 19:30 0 37 3,8
9 4.2.2023 19:00 0 37 3,9
10 4.2.2023 18:30 0 35,7 4,6
11 4.2.2023 18:00 0 33 5,2
12 4.2.2023 17:30 0 33,3 5,5
13 4.2.2023 17:00 0 33,3 5,9
14 4.2.2023 16:30 0 33,3 6,4
15 4.2.2023 16:00 0 32,5 7,2
16 4.2.2023 15:30 0 32 7,6
17 4.2.2023 15:00 0 31,3 8,1
18 4.2.2023 14:30 0 31 8,7
19 4.2.2023 14:00 0 32 8,6
20 4.2.2023 13:30 0 31,7 8,9
21 4.2.2023 13:00 0 29,7 9,3
22 4.2.2023 12:30 0 24,3 9,8
23 4.2.2023 12:00 0 22,7 10,3
24 4.2.2023 11:30 0 24,3 10
25 4.2.2023 11:00 0 27 9,6
26 4.2.2023 10:30 0 30,3 9,3
27 4.2.2023 10:00 0 30,3 9,3
28 4.2.2023 09:30 0 29 8,9
29 4.2.2023 09:00 0 27,7 8,7
30 4.2.2023 08:30 0 25,7 9,1
31 4.2.2023 08:00 0 26 9,1
32 4.2.2023 07:30 0 26,7 9,2
33 4.2.2023 07:00 0 28,3 9
34 4.2.2023 06:30 0 31,7 8,8
35 4.2.2023 06:00 0 31,3 8,9
36 4.2.2023 05:30 0 34,7 8,4
37 4.2.2023 05:00 0 44 6,3
38 4.2.2023 04:30 0 58,7 3,8
39 4.2.2023 04:00 0 71,3 2,1
40 4.2.2023 03:30 0 74,7 1,7
41 4.2.2023 03:00 0 76,7 1,6
42 4.2.2023 02:30 0 75,7 1,9
43 4.2.2023 02:00 0 79,7 1,2
44 4.2.2023 01:30 0 82 1
45 4.2.2023 01:00 0 84,3 0,4
46 4.2.2023 00:30 0 84,7 0,4
47 4.2.2023 00:00 0 85,7 0,7
48 3.2.2023 23:30 0 83 1,2